Location: Hawks Ness
(60.2333°N, 1.1667°W)
Time: 23:05:09
(UTC+00:00)

Cosmos 1726 - Pass Details

Date: 22 October 2019
Orbit: 483 x 500 km, 82.5° (Epoch: 12 November)

Event Time Altitude Azimuth Distance (km) Brightness Sun altitude
Rises 04:15:40 0° 346° (NNW) 2,569 5.8 -21.0°
Reaches altitude 10° 04:17:48 10° 349° (N) 1,684 4.8 -20.7°
Maximum altitude 04:21:28 71° 73° (ENE) 522 2.3 -20.3°
Drops below altitude 10° 04:25:08 10° 159° (SSE) 1,678 4.9 -19.9°
Sets 04:27:14 0° 162° (SSE) 2,557 5.8 -19.6°
